Cloud_Cover
46 7 5 5 5 5 100 78 16 4 0 0 1 19 83 100 100 58 1 0 0 4 1 5 3 76 100 100 100 45 24 0 0 0 0 0 2 0 0 0 0 0 0
100 100 13 4 5 5 100 78 19 24 2 0 8 30 21 92 11 1 0 0 0 0 0 0 0 0 2 3 0 0 0 0 0 0 0 0 14 0 0 0 0 2 1
100 100 100 61 5 5 61 5 26 100 82 76 15 44 98 12 0 0 0 0 0 0 0 0 0 0 0 0 0 0 0 0 0 0 0 0 70 0 0 0 0 10 28
100 100 100 100 28 92 5 5 12 38 50 69 98 89 16 0 0 0 0 0 0 1 0 0 0 0 0 0 0 0 0 0 0 0 0 0 0 0 0 2 0 5 19
100 100 100 100 100 23 71 80 74 53 93 97 57 5 1 0 0 3 2 0 0 0 5 5 0 0 0 0 0 0 0 0 0 0 0 0 0 0 0 7 0 1 7
100 98 100 100 100 81 22 100 62 51 66 46 5 5 5 0 0 0 2 4 3 2 5 50 28 5 5 1 0 0 0 0 0 0 0 0 1 91 42 96 36 100 100
88 99 50 62 87 100 69 100 100 99 22 41 100 4 5 5 5 10 4 2 3 0 0 1 2 9 8 16 0 0 0 0 0 0 0 44 92 70 64 52 60 72 40
55 93 37 36 84 85 95 100 99 73 37 5 16 99 89 42 60 5 0 14 4 0 1 3 24 5 28 16 0 0 0 0 0 0 39 61 80 100 100 20 10 8 68
55 89 100 63 33 99 100 100 39 8 45 100 69 73 88 5 5 5 79 64 56 9 1 0 10 5 21 5 5 0 0 0 0 0 0 0 93 100 35 96 11 7 19
91 100 100 87 71 100 100 100 25 37 5 44 21 60 97 6 5 99 19 5 5 2 3 4 2 0 0 0 1 5 0 0 0 0 0 0 17 41 46 45 96 100 21
100 100 100 100 100 100 100 100 100 72 99 12 5 5 16 5 5 5 5 5 5 5 0 4 2 5 4 5 4 2 5 5 0 5 6 27 10 64 99 64 100 73 2
98 100 100 100 100 100 100 95 100 100 100 96 98 5 5 5 5 5 5 5 5 5 4 5 1 0 2 5 5 7 8 3 99 99 4 0 94 95 70 1 3 14 0
100 100 100 97 100 74 92 15 97 100 100 77 75 5 5 4 0 0 0 0 5 5 5 5 0 4 5 4 5 5 5 3 6 2 5 5 0 0 0 0 0 0 0
100 100 100 95 100 100 100 100 60 35 8 66 84 8 5 5 5 5 5 5 5 5 5 5 5 1 5 5 5 5 5 5 4 3 5 5 3 3 0 0 0 0 1
100 100 100 100 100 100 100 100 100 53 8 67 99 83 20 5 5 4 5 5 5 5 43 5 5 5 5 5 53 5 5 5 5 5 5 5 5 5 5 2 5 0 4
100 100 100 100 100 100 100 100 99 88 100 73 75 78 83 56 93 37 35 75 100 65 78 40 43 73 51 99 37 5 5 10 5 5 5 5 5 5 5 4 0 1 5
100 100 100 100 100 100 100 100 100 100 100 100 100 75 98 24 85 99 100 100 100 100 100 69 94 96 46 19 5 5 8 5 7 16 5 5 5 5 5 0 5 5 5
100 100 100 100 100 100 100 100 100 100 100 100 100 100 100 45 89 100 100 100 100 100 100 100 78 30 20 39 16 5 44 5 81 46 64 71 15 89 5 5 2 1 5
100 100 100 100 100 100 100 100 100 100 100 100 100 100 100 100 100 100 100 100 100 100 100 100 48 61 26 54 96 27 35 17 81 100 100 93 73 54 26 5 4 5 4
100 100 100 100 100 100 100 100 100 100 100 100 100 100 100 100 100 100 100 100 100 100 100 100 41 58 53 56 61 100 73 99 82 14 14 97 7 5 21 5 4 5 5
100 100 100 100 100 100 100 100 100 100 100 100 100 100 100 100 100 100 100 100 100 100 96 50 71 100 48 22 71 45 100 78 9 35 5 13 32 19 5 7 1 5 5
100 100 100 100 100 100 100 100 100 100 100 100 100 100 100 100 100 100 100 100 100 100 100 92 100 100 100 100 79 100 73 25 89 41 100 72 7 7 20 5 3 6 21
100 100 100 100 100 100 100 100 100 100 100 100 100 100 100 100 100 100 100 100 100 100 88 96 83 100 100 74 86 72 100 100 90 92 97 39 94 21 5 3 3 16 26
100 100 100 100 100 100 100 100 100 100 100 100 100 100 100 100 100 100 100 100 100 100 100 100 100 100 100 100 100 100 100 80 31 100 98 93 14 18 5 5 5 5 5
100 100 100 100 100 100 100 100 100 100 100 100 100 100 100 100 100 100 100 100 100 100 100 100 100 100 100 100 100 100 100 76 84 70 99 98 47 55 8 5 72 65 8
100 100 100 100 100 100 100 100 100 100 100 100 100 100 100 100 100 100 100 100 100 100 100 100 100 100 100 100 86 100 71 97 100 100 82 86 95 64 13 5 5 5 5